owner,sensor,date,latitude,longitude,vertical_datum,wind_speed,wind_to_direction,wind_speed_of_gust,qcFlag 
TABS,ioos:station:wmo:42044:1,2009-11-01T00:00:00Z,26.1914,-97.0507,0.0,4.923108774,43.51823061,6.99,'11111222,11111222,11111222' 
TABS,ioos:station:wmo:42044:1,2009-11-01T00:30:00Z,26.1914,-97.0507,0.0,4.923921202,46.81015076,6.64,'11111222,11111222,11111222' 
TABS,ioos:station:wmo:42044:1,2009-11-01T01:00:00Z,26.1914,-97.0507,0.0,4.898132297,53.55087956,6.82,'11111222,11111222,11111222' 
TABS,ioos:station:wmo:42044:1,2009-11-01T01:30:00Z,26.1914,-97.0507,0.0,4.612764898,54.1731983,6.5,'11111222,11111222,11111222' 
TABS,ioos:station:wmo:42044:1,2009-11-01T02:00:00Z,26.1914,-97.0507,0.0,4.210332528,59.29261507,5.7,'11111222,11111222,11111222' 
TABS,ioos:station:wmo:42044:1,2009-11-01T02:30:00Z,26.1914,-97.0507,0.0,3.792004747,59.58007061,5.34,'11111222,11111222,11111222' 
TABS,ioos:station:wmo:42044:1,2009-11-01T03:00:00Z,26.1914,-97.0507,0.0,3.673962439,66.92390677,5.31,'11111222,11111222,11111222' 
TABS,ioos:station:wmo:42044:1,2009-11-01T03:30:00Z,26.1914,-97.0507,0.0,3.771909331,60.10403926,5.66,'11111222,11111222,11111222' 
TABS,ioos:station:wmo:42044:1,2009-11-01T04:00:00Z,26.1914,-97.0507,0.0,3.810957885,41.59577523,5.27,'11111222,11111222,11111222' 
TABS,ioos:station:wmo:42044:1,2009-11-01T04:30:00Z,26.1914,-97.0507,0.0,3.183080269,22.53652435,4.38,'11111222,11111222,11111222' 
TABS,ioos:station:wmo:42044:1,2009-11-01T05:00:00Z,26.1914,-97.0507,0.0,3.833131879,27.50068022,5.61,'11111222,11111222,11111222' 
TABS,ioos:station:wmo:42044:1,2009-11-01T05:30:00Z,26.1914,-97.0507,0.0,3.411231449,31.45316811,5.29,'11111222,11111222,11111222' 
TABS,ioos:station:wmo:42044:1,2009-11-01T06:00:00Z,26.1914,-97.0507,0.0,3.275255715,39.42449678,4.9,'11111222,11111222,11111222' 
TABS,ioos:station:wmo:42044:1,2009-11-01T06:30:00Z,26.1914,-97.0507,0.0,3.821962846,50.5204044,5.71,'11111222,11111222,11111222' 
TABS,ioos:station:wmo:42044:1,2009-11-01T07:00:00Z,26.1914,-97.0507,0.0,3.919349436,55.49866578,5.49,'11111222,11111222,11111222' 
TABS,ioos:station:wmo:42044:1,2009-11-01T07:30:00Z,26.1914,-97.0507,0.0,3.450275351,56.58593375,5.31,'11111222,11111222,11111222' 
TABS,ioos:station:wmo:42044:1,2009-11-01T08:00:00Z,26.1914,-97.0507,0.0,2.713890197,60.41188481,4.27,'11111222,11111222,11111222' 
TABS,ioos:station:wmo:42044:1,2009-11-01T08:30:00Z,26.1914,-97.0507,0.0,2.2,53.12976765,3.74,'11111222,11111222,11111222' 
TABS,ioos:station:wmo:42044:1,2009-11-01T09:00:00Z,26.1914,-97.0507,0.0,2.205379786,55.15662608,3.68,'11111222,11111222,11111222' 
TABS,ioos:station:wmo:42044:1,2009-11-01T09:30:00Z,26.1914,-97.0507,0.0,1.594521872,41.1856184,3.02,'11111222,11111222,11111222' 
TABS,ioos:station:wmo:42044:1,2009-11-01T10:00:00Z,26.1914,-97.0507,0.0,1.624099751,31.14497986,2.86,'11111222,11111222,11111222' 
TABS,ioos:station:wmo:42044:1,2009-11-01T10:30:00Z,26.1914,-97.0507,0.0,1.762413118,42.47019602,3.01,'11111222,11111222,11111222' 
TABS,ioos:station:wmo:42044:1,2009-11-01T11:00:00Z,26.1914,-97.0507,0.0,2.609310254,45.46549231,4.09,'11111222,11111222,11111222' 
TABS,ioos:station:wmo:42044:1,2009-11-01T11:30:00Z,26.1914,-97.0507,0.0,1.864001073,36.93107696,3.8,'11111222,11111222,11111222' 
TABS,ioos:station:wmo:42044:1,2009-11-01T12:00:00Z,26.1914,-97.0507,0.0,1.710497004,12.49223591,3.41,'11111222,11111222,11111222' 
TABS,ioos:station:wmo:42044:1,2009-11-01T12:30:00Z,26.1914,-97.0507,0.0,1.793348823,19.54611157,2.52,'11111222,11111222,11111222' 
TABS,ioos:station:wmo:42044:1,2009-11-01T13:00:00Z,26.1914,-97.0507,0.0,2.67944024,62.19130709,4.1,'11111222,11111222,11111222' 
TABS,ioos:station:wmo:42044:1,2009-11-01T13:30:00Z,26.1914,-97.0507,0.0,2.596998267,54.71845379,4.58,'11111222,11111222,11111222' 
TABS,ioos:station:wmo:42044:1,2009-11-01T14:00:00Z,26.1914,-97.0507,0.0,2.100380918,346.228222,4.25,'11111222,11111222,11111222' 
TABS,ioos:station:wmo:42044:1,2009-11-01T14:30:00Z,26.1914,-97.0507,0.0,3.925633707,311.2819394,6.43,'11111222,11111222,11111222' 
TABS,ioos:station:wmo:42044:1,2009-11-01T15:00:00Z,26.1914,-97.0507,0.0,5.388923826,303.572036,6.78,'11111222,11111222,11111222' 
TABS,ioos:station:wmo:42044:1,2009-11-01T15:30:00Z,26.1914,-97.0507,0.0,4.950252519,314.1814412,6.02,'11111222,11111222,11111222' 
TABS,ioos:station:wmo:42044:1,2009-11-01T16:00:00Z,26.1914,-97.0507,0.0,4.501777427,309.7728866,5.76,'11111222,11111222,11111222' 
TABS,ioos:station:wmo:42044:1,2009-11-01T16:30:00Z,26.1914,-97.0507,0.0,4.405689503,321.5431749,5.47,'11111222,11111222,11111222' 
TABS,ioos:station:wmo:42044:1,2009-11-01T17:00:00Z,26.1914,-97.0507,0.0,3.856124998,325.032196,5.05,'11111222,11111222,11111222' 
TABS,ioos:station:wmo:42044:1,2009-11-01T17:30:00Z,26.1914,-97.0507,0.0,3.810826682,326.5599985,5.21,'11111222,11111222,11111222' 
TABS,ioos:station:wmo:42044:1,2009-11-01T18:00:00Z,26.1914,-97.0507,0.0,2.591235227,35.1004138,4.49,'11111222,11111222,11111222' 
TABS,ioos:station:wmo:42044:1,2009-11-01T18:30:00Z,26.1914,-97.0507,0.0,2.830989226,62.8915196,4.06,'11111222,11111222,11111222' 
TABS,ioos:station:wmo:42044:1,2009-11-01T19:00:00Z,26.1914,-97.0507,0.0,3.256516544,55.38239934,4.74,'11111222,11111222,11111222' 
TABS,ioos:station:wmo:42044:1,2009-11-01T19:30:00Z,26.1914,-97.0507,0.0,3.214747268,41.97365631,5.32,'11111222,11111222,11111222' 
TABS,ioos:station:wmo:42044:1,2009-11-01T20:00:00Z,26.1914,-97.0507,0.0,2.885220962,49.07528706,4.12,'11111222,11111222,11111222' 
TABS,ioos:station:wmo:42044:1,2009-11-01T20:30:00Z,26.1914,-97.0507,0.0,2.812614442,66.53355809,4.55,'11111222,11111222,11111222' 
TABS,ioos:station:wmo:42044:1,2009-11-01T21:00:00Z,26.1914,-97.0507,0.0,3.045389959,51.39862598,4.57,'11111222,11111222,11111222' 
TABS,ioos:station:wmo:42044:1,2009-11-01T21:30:00Z,26.1914,-97.0507,0.0,3.058054937,79.82882057,5.39,'11111222,11111222,11111222' 
TABS,ioos:station:wmo:42044:1,2009-11-01T22:00:00Z,26.1914,-97.0507,0.0,3.426981179,58.11832543,5.23,'11111222,11111222,11111222' 
TABS,ioos:station:wmo:42044:1,2009-11-01T22:30:00Z,26.1914,-97.0507,0.0,3.51079763,58.39215075,4.89,'11111222,11111222,11111222' 
TABS,ioos:station:wmo:42044:1,2009-11-01T23:00:00Z,26.1914,-97.0507,0.0,2.90299845,62.28706491,4.25,'11111222,11111222,11111222' 
TABS,ioos:station:wmo:42044:1,2009-11-01T23:30:00Z,26.1914,-97.0507,0.0,2.928566202,68.77951346,4.42,'11111222,11111222,11111222' 
TABS,ioos:station:wmo:42044:1,2009-11-02T00:00:00Z,26.1914,-97.0507,0.0,2.890847627,78.22323306,3.86,'11111222,11111222,11111222' 
TABS,ioos:station:wmo:42044:1,2009-11-02T00:30:00Z,26.1914,-97.0507,0.0,4.285288788,56.90292209,5.45,'11111222,11111222,11111222' 
TABS,ioos:station:wmo:42044:1,2009-11-02T01:00:00Z,26.1914,-97.0507,0.0,3.580628436,56.0433073,4.97,'11111222,11111222,11111222' 
TABS,ioos:station:wmo:42044:1,2009-11-02T01:30:00Z,26.1914,-97.0507,0.0,3.127746793,67.04157728,4.18,'11111222,11111222,11111222' 
TABS,ioos:station:wmo:42044:1,2009-11-02T02:00:00Z,26.1914,-97.0507,0.0,3.251491965,62.72532666,5.11,'11111222,11111222,11111222' 
TABS,ioos:station:wmo:42044:1,2009-11-02T02:30:00Z,26.1914,-97.0507,0.0,3.228761372,71.95748751,4.91,'11111222,11111222,11111222' 
TABS,ioos:station:wmo:42044:1,2009-11-02T03:00:00Z,26.1914,-97.0507,0.0,2.595380512,61.45966063,3.71,'11111222,11111222,11111222' 
TABS,ioos:station:wmo:42044:1,2009-11-02T03:30:00Z,26.1914,-97.0507,0.0,3.074556879,65.60194981,5.18,'11111222,11111222,11111222' 
TABS,ioos:station:wmo:42044:1,2009-11-02T04:00:00Z,26.1914,-97.0507,0.0,3.19288271,57.40459532,4.87,'11111222,11111222,11111222' 
TABS,ioos:station:wmo:42044:1,2009-11-02T04:30:00Z,26.1914,-97.0507,0.0,3.055912302,61.67349249,4.12,'11111222,11111222,11111222' 
TABS,ioos:station:wmo:42044:1,2009-11-02T05:00:00Z,26.1914,-97.0507,0.0,2.384806072,38.35933649,3.87,'11111222,11111222,11111222' 
TABS,ioos:station:wmo:42044:1,2009-11-02T05:30:00Z,26.1914,-97.0507,0.0,2.257299271,81.07975616,3.44,'11111222,11111222,11111222' 
TABS,ioos:station:wmo:42044:1,2009-11-02T06:00:00Z,26.1914,-97.0507,0.0,1.911753122,47.9679114,3.45,'11111222,11111222,11111222' 
TABS,ioos:station:wmo:42044:1,2009-11-02T06:30:00Z,26.1914,-97.0507,0.0,2.356013582,37.0641525,4.29,'11111222,11111222,11111222' 
TABS,ioos:station:wmo:42044:1,2009-11-02T07:00:00Z,26.1914,-97.0507,0.0,2.394535446,57.96890744,3.74,'11111222,11111222,11111222' 
TABS,ioos:station:wmo:42044:1,2009-11-02T07:30:00Z,26.1914,-97.0507,0.0,1.999124809,62.921891,3.76,'11111222,11111222,11111222' 
TABS,ioos:station:wmo:42044:1,2009-11-02T08:00:00Z,26.1914,-97.0507,0.0,3.394495544,35.89057209,4.76,'11111222,11111222,11111222' 
TABS,ioos:station:wmo:42044:1,2009-11-02T08:30:00Z,26.1914,-97.0507,0.0,3.74423557,52.487055,5.38,'11111222,11111222,11111222' 
TABS,ioos:station:wmo:42044:1,2009-11-02T09:00:00Z,26.1914,-97.0507,0.0,3.713973613,48.92985067,5.22,'11111222,11111222,11111222' 
TABS,ioos:station:wmo:42044:1,2009-11-02T09:30:00Z,26.1914,-97.0507,0.0,3.532817572,51.89709574,5.84,'11111222,11111222,11111222' 
TABS,ioos:station:wmo:42044:1,2009-11-02T10:00:00Z,26.1914,-97.0507,0.0,3.755875397,58.72194936,5.18,'11111222,11111222,11111222' 
TABS,ioos:station:wmo:42044:1,2009-11-02T10:30:00Z,26.1914,-97.0507,0.0,3.325552586,49.26756763,5.14,'11111222,11111222,11111222' 
TABS,ioos:station:wmo:42044:1,2009-11-02T11:00:00Z,26.1914,-97.0507,0.0,3.139681513,55.90468086,4.83,'11111222,11111222,11111222' 
TABS,ioos:station:wmo:42044:1,2009-11-02T11:30:00Z,26.1914,-97.0507,0.0,3.039605238,39.66045999,4.43,'11111222,11111222,11111222' 
TABS,ioos:station:wmo:42044:1,2009-11-02T12:00:00Z,26.1914,-97.0507,0.0,2.948847232,44.31271908,4.23,'11111222,11111222,11111222' 
TABS,ioos:station:wmo:42044:1,2009-11-02T12:30:00Z,26.1914,-97.0507,0.0,2.86811785,36.35019861,3.94,'11111222,11111222,11111222' 
TABS,ioos:station:wmo:42044:1,2009-11-02T13:00:00Z,26.1914,-97.0507,0.0,2.550490149,52.00646757,3.63,'11111222,11111222,11111222' 
TABS,ioos:station:wmo:42044:1,2009-11-02T13:30:00Z,26.1914,-97.0507,0.0,2.952219504,37.56829372,4.48,'11111222,11111222,11111222' 
TABS,ioos:station:wmo:42044:1,2009-11-02T14:00:00Z,26.1914,-97.0507,0.0,3.164364075,36.00045431,4.58,'11111222,11111222,11111222' 
TABS,ioos:station:wmo:42044:1,2009-11-02T14:30:00Z,26.1914,-97.0507,0.0,2.904961273,41.37116064,4.74,'11111222,11111222,11111222' 
TABS,ioos:station:wmo:42044:1,2009-11-02T15:00:00Z,26.1914,-97.0507,0.0,3.367729205,43.07450511,5.33,'11111222,11111222,11111222' 
TABS,ioos:station:wmo:42044:1,2009-11-02T15:30:00Z,26.1914,-97.0507,0.0,3.252967876,45.74697644,4.64,'11111222,11111222,11111222' 
TABS,ioos:station:wmo:42044:1,2009-11-02T16:00:00Z,26.1914,-97.0507,0.0,3.666619697,33.99315633,5.15,'11111222,11111222,11111222' 
TABS,ioos:station:wmo:42044:1,2009-11-02T16:30:00Z,26.1914,-97.0507,0.0,3.162419959,27.69919758,4.4,'11111222,11111222,11111222' 
TABS,ioos:station:wmo:42044:1,2009-11-02T17:00:00Z,26.1914,-97.0507,0.0,3.114434138,37.82627942,4.2,'11111222,11111222,11111222' 
TABS,ioos:station:wmo:42044:1,2009-11-02T17:30:00Z,26.1914,-97.0507,0.0,2.979345566,42.68733967,4.3,'11111222,11111222,11111222' 
TABS,ioos:station:wmo:42044:1,2009-11-02T18:00:00Z,26.1914,-97.0507,0.0,3.042367499,39.13009759,4.69,'11111222,11111222,11111222' 
TABS,ioos:station:wmo:42044:1,2009-11-02T18:30:00Z,26.1914,-97.0507,0.0,2.574218328,17.87161122,3.59,'11111222,11111222,11111222' 
TABS,ioos:station:wmo:42044:1,2009-11-02T19:00:00Z,26.1914,-97.0507,0.0,2.741277075,39.67146199,3.81,'11111222,11111222,11111222' 
TABS,ioos:station:wmo:42044:1,2009-11-02T19:30:00Z,26.1914,-97.0507,0.0,3.078343711,36.0133945,4.33,'11111222,11111222,11111222' 
TABS,ioos:station:wmo:42044:1,2009-11-02T20:00:00Z,26.1914,-97.0507,0.0,3.77033155,27.31236618,5.58,'11111222,11111222,11111222' 
TABS,ioos:station:wmo:42044:1,2009-11-02T20:30:00Z,26.1914,-97.0507,0.0,4.426511041,45.18273687,5.98,'11111222,11111222,11111222' 
TABS,ioos:station:wmo:42044:1,2009-11-02T21:00:00Z,26.1914,-97.0507,0.0,5.185527938,57.84201364,6.58,'11111222,11111222,11111222' 
TABS,ioos:station:wmo:42044:1,2009-11-02T21:30:00Z,26.1914,-97.0507,0.0,4.792128963,47.62143495,6.64,'11111222,11111222,11111222' 
TABS,ioos:station:wmo:42044:1,2009-11-02T22:00:00Z,26.1914,-97.0507,0.0,4.861614958,40.07688038,6.67,'11111222,11111222,11111222' 
TABS,ioos:station:wmo:42044:1,2009-11-02T22:30:00Z,26.1914,-97.0507,0.0,5.660035336,53.33222492,7.18,'11111222,11111222,11111222' 
TABS,ioos:station:wmo:42044:1,2009-11-02T23:00:00Z,26.1914,-97.0507,0.0,5.122265124,46.89829224,6.9,'11111222,11111222,11111222' 
TABS,ioos:station:wmo:42044:1,2009-11-02T23:30:00Z,26.1914,-97.0507,0.0,4.893260672,57.34885314,6.34,'11111222,11111222,11111222' 
TABS,ioos:station:wmo:42044:1,2009-11-03T00:00:00Z,26.1914,-97.0507,0.0,4.414000453,63.49264031,5.71,'11111222,11111222,11111222' 
TABS,ioos:station:wmo:42044:1,2009-11-03T00:30:00Z,26.1914,-97.0507,0.0,4.006557126,60.87559369,5.48,'11111222,11111222,11111222' 
TABS,ioos:station:wmo:42044:1,2009-11-03T01:00:00Z,26.1914,-97.0507,0.0,4.350919443,59.01331094,5.67,'11111222,11111222,11111222' 
TABS,ioos:station:wmo:42044:1,2009-11-03T01:30:00Z,26.1914,-97.0507,0.0,4.698638101,56.98601281,6.51,'11111222,11111222,11111222' 
TABS,ioos:station:wmo:42044:1,2009-11-03T02:00:00Z,26.1914,-97.0507,0.0,5.118564252,54.94344907,6.75,'11111222,11111222,11111222' 
TABS,ioos:station:wmo:42044:1,2009-11-03T02:30:00Z,26.1914,-97.0507,0.0,5.528697858,47.71204669,7.56,'11111222,11111222,11111222' 
TABS,ioos:station:wmo:42044:1,2009-11-03T03:00:00Z,26.1914,-97.0507,0.0,5.24271876,59.12960708,6.86,'11111222,11111222,11111222' 
TABS,ioos:station:wmo:42044:1,2009-11-03T03:30:00Z,26.1914,-97.0507,0.0,4.822540824,60.56423155,6.16,'11111222,11111222,11111222' 
TABS,ioos:station:wmo:42044:1,2009-11-03T04:00:00Z,26.1914,-97.0507,0.0,4.113161801,56.00051366,5.91,'11111222,11111222,11111222' 
TABS,ioos:station:wmo:42044:1,2009-11-03T04:30:00Z,26.1914,-97.0507,0.0,4.179724871,56.61374486,5.2,'11111222,11111222,11111222' 
TABS,ioos:station:wmo:42044:1,2009-11-03T05:00:00Z,26.1914,-97.0507,0.0,5.31836441,62.32640204,7.24,'11111222,11111222,11111222' 
TABS,ioos:station:wmo:42044:1,2009-11-03T05:30:00Z,26.1914,-97.0507,0.0,6.030538948,47.55343146,7.32,'11111222,11111222,11111222' 
TABS,ioos:station:wmo:42044:1,2009-11-03T06:00:00Z,26.1914,-97.0507,0.0,6.356453414,48.76287354,8.34,'11111222,11111222,11111222' 
TABS,ioos:station:wmo:42044:1,2009-11-03T06:30:00Z,26.1914,-97.0507,0.0,6.647766542,45.97483517,8.41,'11111222,11111222,11111222' 
TABS,ioos:station:wmo:42044:1,2009-11-03T07:00:00Z,26.1914,-97.0507,0.0,6.474449784,34.74523419,8.09,'11111222,11111222,11111222' 
TABS,ioos:station:wmo:42044:1,2009-11-03T07:30:00Z,26.1914,-97.0507,0.0,6.431562796,30.35234329,9.31,'11111222,11111222,11111222' 
TABS,ioos:station:wmo:42044:1,2009-11-03T08:00:00Z,26.1914,-97.0507,0.0,5.932705959,29.37325691,8.29,'11111222,11111222,11111222' 
TABS,ioos:station:wmo:42044:1,2009-11-03T08:30:00Z,26.1914,-97.0507,0.0,5.855749312,30.02373482,7.29,'11111222,11111222,11111222' 
TABS,ioos:station:wmo:42044:1,2009-11-03T09:00:00Z,26.1914,-97.0507,0.0,5.440119484,25.01026187,7.9,'11111222,11111222,11111222' 
TABS,ioos:station:wmo:42044:1,2009-11-03T09:30:00Z,26.1914,-97.0507,0.0,5.805454332,25.72615031,7.37,'11111222,11111222,11111222' 
TABS,ioos:station:wmo:42044:1,2009-11-03T10:00:00Z,26.1914,-97.0507,0.0,6.126989473,26.14656963,7.9,'11111222,11111222,11111222' 
TABS,ioos:station:wmo:42044:1,2009-11-03T10:30:00Z,26.1914,-97.0507,0.0,5.78581887,24.61579486,7.61,'11111222,11111222,11111222' 
TABS,ioos:station:wmo:42044:1,2009-11-03T11:00:00Z,26.1914,-97.0507,0.0,6.217531665,38.14139963,8.63,'11111222,11111222,11111222' 
TABS,ioos:station:wmo:42044:1,2009-11-03T11:30:00Z,26.1914,-97.0507,0.0,4.901448765,30.80309439,7.36,'11111222,11111222,11111222' 
TABS,ioos:station:wmo:42044:1,2009-11-03T12:00:00Z,26.1914,-97.0507,0.0,6.35781409,24.8315195,8.67,'11111222,11111222,11111222' 
TABS,ioos:station:wmo:42044:1,2009-11-03T12:30:00Z,26.1914,-97.0507,0.0,6.111178282,28.11633106,7.83,'11111222,11111222,11111222' 
TABS,ioos:station:wmo:42044:1,2009-11-03T13:00:00Z,26.1914,-97.0507,0.0,6.246615083,31.78147782,8.07,'11111222,11111222,11111222' 
TABS,ioos:station:wmo:42044:1,2009-11-03T13:30:00Z,26.1914,-97.0507,0.0,5.337883476,39.98392934,7.02,'11111222,11111222,11111222' 
TABS,ioos:station:wmo:42044:1,2009-11-03T14:00:00Z,26.1914,-97.0507,0.0,6.346061771,26.88779502,7.99,'11111222,11111222,11111222' 
TABS,ioos:station:wmo:42044:1,2009-11-03T14:30:00Z,26.1914,-97.0507,0.0,6.834244655,21.00715596,8.63,'11111222,11111222,11111222' 
TABS,ioos:station:wmo:42044:1,2009-11-03T15:00:00Z,26.1914,-97.0507,0.0,6.82135617,28.93195159,8.3,'11111222,11111222,11111222' 
TABS,ioos:station:wmo:42044:1,2009-11-03T15:30:00Z,26.1914,-97.0507,0.0,6.533337585,16.63179564,9.02,'11111222,11111222,11111222' 
TABS,ioos:station:wmo:42044:1,2009-11-03T16:00:00Z,26.1914,-97.0507,0.0,6.697835471,12.85331712,8.12,'11111222,11111222,11111222' 
TABS,ioos:station:wmo:42044:1,2009-11-03T16:30:00Z,26.1914,-97.0507,0.0,6.172924752,18.02377042,7.6,'11111222,11111222,11111222' 
TABS,ioos:station:wmo:42044:1,2009-11-03T17:00:00Z,26.1914,-97.0507,0.0,7.336000273,8.781559275,9.15,'11111222,11111222,11111222' 
TABS,ioos:station:wmo:42044:1,2009-11-03T17:30:00Z,26.1914,-97.0507,0.0,7.472543074,4.451410882,9.56,'11111222,11111222,11111222' 
TABS,ioos:station:wmo:42044:1,2009-11-03T18:00:00Z,26.1914,-97.0507,0.0,7.366953237,2.489336642,9.39,'11111222,11111222,11111222' 
TABS,ioos:station:wmo:42044:1,2009-11-03T18:30:00Z,26.1914,-97.0507,0.0,7.414917397,357.9130171,9.76,'11111222,11111222,11111222' 
TABS,ioos:station:wmo:42044:1,2009-11-03T19:00:00Z,26.1914,-97.0507,0.0,7.401141804,1.006231138,9.36,'11111222,11111222,11111222' 
TABS,ioos:station:wmo:42044:1,2009-11-03T19:30:00Z,26.1914,-97.0507,0.0,6.930259735,0.495843342,8.59,'11111222,11111222,11111222' 
TABS,ioos:station:wmo:42044:1,2009-11-03T20:00:00Z,26.1914,-97.0507,0.0,6.1109901,1.031187286,8.18,'11111222,11111222,11111222' 
TABS,ioos:station:wmo:42044:1,2009-11-03T20:30:00Z,26.1914,-97.0507,0.0,5.868730698,5.671511653,7.52,'11111222,11111222,11111222' 
TABS,ioos:station:wmo:42044:1,2009-11-03T21:00:00Z,26.1914,-97.0507,0.0,5.696253154,4.329054079,7.04,'11111222,11111222,11111222' 
TABS,ioos:station:wmo:42044:1,2009-11-03T21:30:00Z,26.1914,-97.0507,0.0,5.743587729,5.194206302,7.72,'11111222,11111222,11111222' 
TABS,ioos:station:wmo:42044:1,2009-11-03T22:00:00Z,26.1914,-97.0507,0.0,6.101294945,8.767350284,7.99,'11111222,11111222,11111222' 
TABS,ioos:station:wmo:42044:1,2009-11-03T22:30:00Z,26.1914,-97.0507,0.0,5.703770683,10.40344388,7.72,'11111222,11111222,11111222' 
TABS,ioos:station:wmo:42044:1,2009-11-03T23:00:00Z,26.1914,-97.0507,0.0,5.413917251,23.62911202,7.05,'11111222,11111222,11111222' 
TABS,ioos:station:wmo:42044:1,2009-11-03T23:30:00Z,26.1914,-97.0507,0.0,5.656792377,21.02997943,7.14,'11111222,11111222,11111222' 
TABS,ioos:station:wmo:42044:1,2009-11-04T00:00:00Z,26.1914,-97.0507,0.0,5.809173779,18.15398938,7.47,'11111222,11111222,11111222' 
TABS,ioos:station:wmo:42044:1,2009-11-04T00:30:00Z,26.1914,-97.0507,0.0,5.857303134,6.469594397,7.98,'11111222,11111222,11111222' 
TABS,ioos:station:wmo:42044:1,2009-11-04T01:00:00Z,26.1914,-97.0507,0.0,6.275866474,6.128246757,8.42,'11111222,11111222,11111222' 
TABS,ioos:station:wmo:42044:1,2009-11-04T01:30:00Z,26.1914,-97.0507,0.0,6.950115107,0.329545011,8.76,'11111222,11111222,11111222' 
TABS,ioos:station:wmo:42044:1,2009-11-04T02:00:00Z,26.1914,-97.0507,0.0,7.164719115,2.079443903,9.18,'11111222,11111222,11111222' 
TABS,ioos:station:wmo:42044:1,2009-11-04T02:30:00Z,26.1914,-97.0507,0.0,6.597764773,2.779792031,8.41,'11111222,11111222,11111222' 
TABS,ioos:station:wmo:42044:1,2009-11-04T03:00:00Z,26.1914,-97.0507,0.0,5.743483264,1.995346191,7.64,'11111222,11111222,11111222' 
TABS,ioos:station:wmo:42044:1,2009-11-04T03:30:00Z,26.1914,-97.0507,0.0,5.318467824,356.766185,6.79,'11111222,11111222,11111222' 
TABS,ioos:station:wmo:42044:1,2009-11-04T04:00:00Z,26.1914,-97.0507,0.0,4.825453347,26.72408026,6.57,'11111222,11111222,11111222' 
TABS,ioos:station:wmo:42044:1,2009-11-04T04:30:00Z,26.1914,-97.0507,0.0,3.670054496,22.93183635,5.12,'11111222,11111222,11111222' 
TABS,ioos:station:wmo:42044:1,2009-11-04T05:00:00Z,26.1914,-97.0507,0.0,2.81625638,15.02290766,3.98,'11111222,11111222,11111222' 
TABS,ioos:station:wmo:42044:1,2009-11-04T05:30:00Z,26.1914,-97.0507,0.0,3.567239829,50.68766226,5.01,'11111222,11111222,11111222' 
TABS,ioos:station:wmo:42044:1,2009-11-04T06:00:00Z,26.1914,-97.0507,0.0,3.537357771,51.54222912,4.82,'11111222,11111222,11111222' 
TABS,ioos:station:wmo:42044:1,2009-11-04T06:30:00Z,26.1914,-97.0507,0.0,3.56665109,61.35072427,4.77,'11111222,11111222,11111222' 
TABS,ioos:station:wmo:42044:1,2009-11-04T07:00:00Z,26.1914,-97.0507,0.0,3.1580057,73.63055443,4.59,'11111222,11111222,11111222' 
TABS,ioos:station:wmo:42044:1,2009-11-04T07:30:00Z,26.1914,-97.0507,0.0,3.088721418,69.33502646,4.84,'11111222,11111222,11111222' 
TABS,ioos:station:wmo:42044:1,2009-11-04T08:00:00Z,26.1914,-97.0507,0.0,3.444009292,53.26285835,4.92,'11111222,11111222,11111222' 
TABS,ioos:station:wmo:42044:1,2009-11-04T08:30:00Z,26.1914,-97.0507,0.0,3.516475508,49.15095987,4.84,'11111222,11111222,11111222' 
TABS,ioos:station:wmo:42044:1,2009-11-04T09:00:00Z,26.1914,-97.0507,0.0,3.748092848,45.86445857,5.39,'11111222,11111222,11111222' 
TABS,ioos:station:wmo:42044:1,2009-11-04T09:30:00Z,26.1914,-97.0507,0.0,3.482441672,42.43938941,4.61,'11111222,11111222,11111222' 
TABS,ioos:station:wmo:42044:1,2009-11-04T10:00:00Z,26.1914,-97.0507,0.0,3.615190175,59.03589496,5.15,'11111222,11111222,11111222' 
TABS,ioos:station:wmo:42044:1,2009-11-04T10:30:00Z,26.1914,-97.0507,0.0,4.140386455,58.22896739,5.59,'11111222,11111222,11111222' 
TABS,ioos:station:wmo:42044:1,2009-11-04T11:00:00Z,26.1914,-97.0507,0.0,4.424115731,52.71533983,5.61,'11111222,11111222,11111222' 
TABS,ioos:station:wmo:42044:1,2009-11-04T11:30:00Z,26.1914,-97.0507,0.0,4.964876635,55.66944217,5.92,'11111222,11111222,11111222' 
TABS,ioos:station:wmo:42044:1,2009-11-04T12:00:00Z,26.1914,-97.0507,0.0,4.952130854,52.71324768,6.34,'11111222,11111222,11111222' 
TABS,ioos:station:wmo:42044:1,2009-11-04T12:30:00Z,26.1914,-97.0507,0.0,5.211765536,45.69932499,6.33,'11111222,11111222,11111222' 
TABS,ioos:station:wmo:42044:1,2009-11-04T13:00:00Z,26.1914,-97.0507,0.0,5.446558546,52.3092104,6.94,'11111222,11111222,11111222' 
TABS,ioos:station:wmo:42044:1,2009-11-04T13:30:00Z,26.1914,-97.0507,0.0,5.761084967,55.53723555,6.89,'11111222,11111222,11111222' 
TABS,ioos:station:wmo:42044:1,2009-11-04T14:00:00Z,26.1914,-97.0507,0.0,5.689569404,62.35366837,7.17,'11111222,11111222,11111222' 
TABS,ioos:station:wmo:42044:1,2009-11-04T14:30:00Z,26.1914,-97.0507,0.0,5.452788278,55.98901784,6.71,'11111222,11111222,11111222' 
TABS,ioos:station:wmo:42044:1,2009-11-04T15:00:00Z,26.1914,-97.0507,0.0,3.351492205,54.8395777,4.9,'11111222,11111222,11111222' 
TABS,ioos:station:wmo:42044:1,2009-11-04T15:30:00Z,26.1914,-97.0507,0.0,3.83865862,40.24481858,5.03,'11111222,11111222,11111222' 
TABS,ioos:station:wmo:42044:1,2009-11-04T16:00:00Z,26.1914,-97.0507,0.0,3.710862433,38.10489515,4.56,'11111222,11111222,11111222' 
TABS,ioos:station:wmo:42044:1,2009-11-04T16:30:00Z,26.1914,-97.0507,0.0,4.047171852,23.90472562,5.3,'11111222,11111222,11111222' 
TABS,ioos:station:wmo:42044:1,2009-11-04T17:00:00Z,26.1914,-97.0507,0.0,4.01568176,20.55578669,5.34,'11111222,11111222,11111222' 
TABS,ioos:station:wmo:42044:1,2009-11-04T17:30:00Z,26.1914,-97.0507,0.0,4.032914579,15.82805912,5.12,'11111222,11111222,11111222' 
TABS,ioos:station:wmo:42044:1,2009-11-04T18:00:00Z,26.1914,-97.0507,0.0,4.098316728,18.34627612,5.45,'11111222,11111222,11111222' 
TABS,ioos:station:wmo:42044:1,2009-11-04T18:30:00Z,26.1914,-97.0507,0.0,4.345296308,21.60526626,5.77,'11111222,11111222,11111222' 